Weather Roundup
Issued by NWS Corpus Christi, TX

Home | Current Version | Previous Version | Text Only | Print | Product List | Glossary On
Versions: 1 2 3 4 5 6 7 8 9 10 11 12 13 14 15 16 17 18 19 20 21 22 23 24 25 26 27 28 29 30 31 32 33 34 35 36 37 38 39 40 41 42 43 44 45 46 47 48 49 50
000
ASUS44 KCRP 210310
HRRCRP

SOUTH TEXAS REGIONAL WEATHER ROUNDUP
NATIONAL WEATHER SERVICE CORPUS CHRISTI TX
900 PM CST MON FEB 20 2017


TXZ229>244-210400-
...CORPUS CHRISTI AREA OBSERVATIONS...

CITY           SKY/WX    TMP DP  RH WIND       PRES   REMARKS
CORPUS CHRISTI PTCLDY    63  62  97 SE7       30.01R
NAS CORPUS CHR CLEAR     63  63 100 SE9       30.01R
ROCKPORT       CLEAR     63  59  87 SE7       30.00R
KINGSVILLE NAS CLEAR     63  63 100 SE6       30.01R
ALICE          CLEAR     61  60  97 SE5       30.00R
ORANGE GROVE   CLEAR     61  61 100 S3        30.02R
FALFURRIAS     CLEAR     63  56  79 E5        30.01R
$$

...VICTORIA AREA OBSERVATIONS...

CITY           SKY/WX    TMP DP  RH WIND       PRES   REMARKS
VICTORIA       CLEAR     61  59  93 S9        30.00R
BEEVILLE       FAIR      61  61 100 S5        30.00R
PLEASANTON     PTCLDY    58  45  61 SW3       29.98S
SAN ANTONIO    PTCLDY    61  43  51 SW5       29.97S
$$

...LAREDO AREA OBSERVATIONS...

CITY           SKY/WX    TMP DP  RH WIND       PRES   REMARKS
LAREDO         CLEAR     69  43  38 NW12      30.04R
COTULLA        CLEAR     66  41  40 W3        30.00S
DEL RIO        CLEAR     61  41  47 NW7       30.02R
MCALLEN        CLEAR     65  60  84 SE5       30.03R
HEBBRONVILLE   CLEAR     60  48  63 CALM      30.04R
$$

...OTHER TEXAS OBSERVATIONS...

CITY           SKY/WX    TMP DP  RH WIND       PRES   REMARKS
BROWNSVILLE    PTCLDY    64  62  93 E3        30.04R
HOUSTON        MOCLDY    60  59  96 S3        30.00R
COL. STATION   CLOUDY    60  59  96 MISG      29.97R
AUSTIN         PTCLDY    60  57  89 S6        29.95S
WACO           CLEAR     57  56  96 S6        29.93S
FORT WORTH     CLEAR     58  54  86 SE3       29.91S
WICHITA FALLS  CLEAR     58  44  60 NW3       29.93R
LUBBOCK        CLEAR     47  23  38 NW6       30.08R
EL PASO        CLEAR     61  23  23 W7        30.21R
$$

...MARINE OBSERVATIONS...

STATION/POSITION TIME  SKY/WX   TEMP    WIND        PRES    VSBY  WAVE   SWELL
                                AIR SEA DIR/SP/G                  HT/PER HT/PER
                 (UTC)          (F)     (DEG/KT/KT) (MB)    (MI)  (FT/S) (FT/S)
PORT ARANSAS     0300            65 67  130/ 12/ 12 1016.0R
BUOY 90 E PORT A 0250            67 70  120/  2/  4 1016.5S         4/ 8   3/ 8
BUOY 45 SE BAFFI 0250            68      70/  4/  4 1016.0R         4/ 8   3/ 8
BUOY 200 E PT IS 0150            71 75   30/ 17/ 21 1015.1          6/ 7
BUOY 15 E GALVES 0250            64 64   90/  2/  4 1016.2R         3/ 8   2/ 8
$$




USA.gov is the U.S. government's official web portal to all federal, state and local government web resources and services.